Location: Wanzleben
(52.0609°N, 11.4408°E)
Time: 01:47:34
(UTC+00:00)

COSMOS 2406 - Pass Details

Date: 20 January 2021
Orbit: 841 x 865 km, 71.0° (Epoch: 05 March)

Event Time Altitude Azimuth Distance (km) Brightness Sun altitude
Rises 19:07:46 0° 328° (NNW) 3,460 6.9 -31.2°
Reaches altitude 10° 19:10:15 10° 326° (NW) 2,519 6.1 -31.6°
Enters shadow 19:15:03 57° 294° (WNW) 1,011 3.7 -32.3°
